Waarnemingen

Advertentie
Mijn weer
Rostock-Warnemünde, Duitsland (10170): temperatuur & dauwpunt: 18.02.2018 15:00:00 - 24.02.2018 15:00:00 (CET)Rostock-Warnemünde, Duitsland (10170): temperatuur 5cm & temperatuur -5cm: 18.02.2018 15:00:00 - 24.02.2018 15:00:00 (CET)Rostock-Warnemünde, Duitsland (10170): temperatuur -20cm & temperatuur -100cm: 18.02.2018 15:00:00 - 24.02.2018 15:00:00 (CET)Rostock-Warnemünde, Duitsland (10170): windsnelheid & windstoten: 18.02.2018 15:00:00 - 24.02.2018 15:00:00 (CET)Rostock-Warnemünde, Duitsland (10170): windrichting: 18.02.2018 15:00:00 - 24.02.2018 15:00:00 (CET)Rostock-Warnemünde, Duitsland (10170): luchtdruk: 18.02.2018 15:00:00 - 24.02.2018 15:00:00 (CET)Rostock-Warnemünde, Duitsland (10170): zicht: 18.02.2018 15:00:00 - 24.02.2018 15:00:00 (CET)Rostock-Warnemünde, Duitsland (10170): Zonneschijnduur: 18.02.2018 15:00:00 - 24.02.2018 15:00:00 (CET)Rostock-Warnemünde, Duitsland (10170): neerslag: 18.02.2018 15:00:00 - 24.02.2018 15:00:00 (CET)
Datum & Tijd tt [°C] td [°C] tt 5cm [°C] tt -5cm [°C] tt -20cm [°C] tt -100cm [°C] ff [km/u] ff [kn] fx [km/u] fx [kn] dd ppp [hPa] vv [km] sd [min] rr [mm]
24.02.2018 15:00:00 0,6 -9,4 3,5 1,2 0,2 2,6 15 8 41 22 ONO 1033,6 9 41 0,0
24.02.2018 14:00:00 0,0 -9,5 0,5 1,3 0,2 2,6 22 12 39 21 ONO 1033,6 36 30 0,0
24.02.2018 13:00:00 -0,2 -6,6 0,3 0,5 0,2 2,7 21 12 42 23 ONO 1033,6 28 36 0,0
24.02.2018 12:00:00 0,1 -8,5 2,9 0,2 0,2 2,7 21 12 41 22 ONO 1033,5 8 59 0,0
24.02.2018 11:00:00 -0,2 -6,9 1,1 -0,1 0,2 2,7 23 12 39 21 ONO 1033,5 29 50 0,0
24.02.2018 10:00:00 -0,1 -7,5 0,6 -0,5 0,2 2,7 16 9 32 17 ONO 1033,1 32 52 0,0
24.02.2018 09:00:00 -0,5 -8,3 -1,3 -1,0 0,2 2,7 12 6 26 14 O 1032,9 27 60 0,0
24.02.2018 08:00:00 -0,6 -6,7 -1,6 -0,9 0,2 2,7 9 5 28 15 ONO 1032,6 50 22 0,0
24.02.2018 07:00:00 -0,3 -5,8 -1,7 -0,6 0,2 2,7 16 9 39 21 ONO 1031,9 46 0 0,0
24.02.2018 06:00:00 0,3 -5,9 -0,4 -0,4 0,2 2,7 13 7 23 13 ONO 1031,2 42 0 0,0
24.02.2018 05:00:00 0,4 -4,3 -0,3 -0,3 0,2 2,7 9 5 23 12 ONO 1030,8 37 0 0,0
24.02.2018 04:00:00 0,1 -2,5 -0,4 -0,3 0,2 2,7 13 7 22 12 ONO 1030,3 34 0 0,0
24.02.2018 03:00:00 -0,2 -2,3 -0,6 -0,2 0,2 2,7 8 4 25 13 NO 1030,1 26 0 0,0
24.02.2018 02:00:00 0,2 -2,7 -0,2 -0,2 0,2 2,7 13 7 27 14 ONO 1029,9 26 0 0,0
24.02.2018 01:00:00 0,1 -2,7 -0,3 -0,2 0,2 2,7 10 5 22 12 ONO 1029,7 21 0 0,0
24.02.2018 00:00:00 0,1 -3,7 -0,4 -0,2 0,2 2,7 8 5 17 9 ONO 1029,5 20 0 0,0
23.02.2018 23:00:00 -0,2 -4,2 -0,9 -0,2 0,2 2,7 3 2 9 5 NO 1029,3 25 0 0,0
23.02.2018 22:00:00 -0,9 -4,9 -1,4 -0,3 0,2 2,7 4 2 12 6 ONO 1029,2 22 0 0,0
23.02.2018 21:00:00 -1,1 -5,5 -2,1 -0,5 0,2 2,7 6 3 14 7 O 1029,1 21 0 0,0
23.02.2018 20:00:00 -1,3 -5,8 -4,0 -0,5 0,2 2,7 7 4 19 10 ONO 1028,8 20 0 0,0
23.02.2018 19:00:00 -0,7 -6,4 -2,6 -0,2 0,2 2,7 12 6 19 10 ONO 1028,8 19 0 0,0
23.02.2018 18:00:00 -0,4 -8,5 -3,0 0,0 0,2 2,7 8 4 13 7 ONO 1028,4 28 0 0,0
23.02.2018 17:00:00 0,2 -8,5 -1,6 0,0 0,2 2,7 6 4 17 9 O 1028,4 32 34 0,0
23.02.2018 16:00:00 0,6 -8,6 0,3 0,2 0,2 2,7 9 5 22 12 OZO 1028,5 18 60 0,0
23.02.2018 15:00:00 0,3 -8,9 1,6 1,1 0,2 2,7 10 5 23 13 OZO 1028,6 8 60 0,0
23.02.2018 14:00:00 0,5 -8,8 2,6 1,2 0,2 2,7 14 7 23 12 OZO 1028,8 7 60 0,0
23.02.2018 13:00:00 -0,2 -7,9 2,6 0,8 0,2 2,7 12 7 24 13 OZO 1029,1 4,8 60 0,0
23.02.2018 12:00:00 -0,3 -6,8 3,0 -0,1 0,2 2,7 12 6 22 12 OZO 1029,2 7 60 0,0
23.02.2018 11:00:00 -1,3 -7,8 1,2 -0,3 0,2 2,7 8 5 22 12 O 1029,3 17 60 0,0
23.02.2018 10:00:00 -2,1 -7,0 -1,3 -1,6 0,2 2,7 8 4 20 11 ONO 1029,2 13 60 0,0
23.02.2018 09:00:00 -3,1 -7,0 -4,6 -2,3 0,3 2,7 8 4 17 9 O 1028,9 12 60 0,0
23.02.2018 08:00:00 -3,1 -6,8 -5,0 -2,5 0,3 2,7 9 5 20 11 ONO 1028,7 14 17 0,0
23.02.2018 07:00:00 -3,0 -7,1 -5,4 -2,3 0,3 2,7 8 4 18 10 O 1028,2 16 0 0,0
23.02.2018 06:00:00 -2,9 -6,6 -5,4 -2,1 0,3 2,7 9 5 17 9 O 1027,9 23 0 0,0
23.02.2018 05:00:00 -2,2 -5,8 -4,7 -1,8 0,4 2,7 8 5 21 11 ONO 1027,8 26 0 0,0
23.02.2018 04:00:00 -2,2 -5,6 -4,8 -1,6 0,4 2,7 7 4 15 8 O 1027,6 24 0 0,0
23.02.2018 03:00:00 -2,2 -5,4 -5,0 -1,3 0,4 2,7 7 4 21 12 O 1027,9 22 0 0,0
23.02.2018 02:00:00 -1,9 -5,4 -3,9 -1,0 0,5 2,7 10 6 25 13 O 1027,9 22 0 0,0
23.02.2018 01:00:00 -1,5 -4,5 -4,1 -0,6 0,5 2,7 11 6 22 12 O 1028,1 23 0 0,0
23.02.2018 00:00:00 -0,9 -3,8 -2,5 -0,3 0,5 2,7 10 5 18 10 OZO 1028,0 20 0 0,0
22.02.2018 23:00:00 -0,4 -3,2 -2,5 0,0 0,6 2,7 10 5 25 13 O 1027,9 16 0 0,0
22.02.2018 22:00:00 0,1 -2,9 -0,8 0,0 0,6 2,7 11 6 24 13 O 1027,5 11 0 0,0
22.02.2018 21:00:00 0,2 -2,6 -0,4 0,1 0,6 2,7 11 6 19 10 O 1027,2 12 0 0,0
22.02.2018 20:00:00 0,4 -2,4 -0,7 0,1 0,7 2,6 10 5 23 12 O 1027,2 17 0 0,0
22.02.2018 19:00:00 0,6 -3,3 -1,3 0,2 0,8 2,7 13 7 22 12 ONO 1026,9 35 0 0,0
22.02.2018 18:00:00 1,5 -3,8 0,3 0,5 0,9 2,7 11 6 23 13 ONO 1026,7 41 0 0,0
22.02.2018 17:00:00 1,8 -2,6 1,2 1,2 0,8 2,7 14 8 22 12 ONO 1026,4 43 0 0,0
22.02.2018 16:00:00 1,9 -2,0 1,9 1,7 0,6 2,7 16 9 27 15 NO 1026,5 36 9 0,0
22.02.2018 15:00:00 2,0 -1,4 4,3 2,0 0,3 2,7 21 11 25 14 NNO 1026,8 13 60 0,0
22.02.2018 14:00:00 1,9 -2,1 4,3 1,6 0,3 2,7 18 10 24 13 NNO 1027,3 10 45 0,0
22.02.2018 13:00:00 1,4 -0,8 1,8 0,4 0,3 2,7 11 6 19 11 NO 1027,5 19 0 0,0
22.02.2018 12:00:00 1,2 -0,6 1,5 0,0 0,3 2,6 12 6 23 13 ONO 1027,7 12 0 0,0
22.02.2018 11:00:00 1,6 0,3 1,4 0,0 0,3 2,7 17 9 20 11 N 1027,6 4,8 1 0,0
22.02.2018 10:00:00 1,4 -0,2 1,2 0,0 0,3 2,6 14 8 16 9 N 1027,5 5 0 0,1
22.02.2018 09:00:00 1,1 0,0 0,7 0,0 0,3 2,6 12 6 14 8 N 1027,3 4,3 0 0,0
22.02.2018 08:00:00 1,2 -0,3 0,4 -0,1 0,3 2,6 10 6 14 8 N 1027,3 5 0 0,0
22.02.2018 07:00:00 1,2 -0,6 0,1 -0,1 0,3 2,6 13 7 17 9 N 1027,1 7 0 0,0
22.02.2018 06:00:00 1,4 -0,8 0,1 -0,1 0,3 2,6 14 7 16 9 NNW 1027,2 8 0 0,0
22.02.2018 05:00:00 1,3 -0,3 -0,1 -0,1 0,3 2,6 6 4 14 7 N 1027,1 6 0 0,0
22.02.2018 04:00:00 1,2 0,2 0,0 -0,2 0,3 2,6 9 5 16 9 NNW 1027,2 6 0 0,0
22.02.2018 03:00:00 -0,3 -1,6 -1,1 -0,3 0,3 2,6 5 3 11 6 WZW 1027,4 4,0 0 0,0
22.02.2018 02:00:00 -0,3 -1,6 -1,7 -0,4 0,3 2,6 6 3 11 6 W 1027,7 7 0 0,0
22.02.2018 01:00:00 -0,3 -2,0 -1,8 -0,4 0,3 2,6 5 3 9 5 WZW 1027,8 7 0 0,0
22.02.2018 00:00:00 -0,8 -2,3 -1,9 -0,5 0,3 2,6 6 3 9 5 ZW 1027,8 5 0 0,0
21.02.2018 23:00:00 -0,5 -1,9 -2,3 -0,6 0,4 2,6 7 4 8 5 ZW 1027,9 6 0 0,0
21.02.2018 22:00:00 -0,4 -1,3 -2,0 -0,5 0,4 2,6 6 4 7 4 ZZW 1027,9 6 0 0,0
21.02.2018 21:00:00 -0,3 -1,3 -4,8 -0,2 0,4 2,6 4 2 6 3 ZZW 1027,8 10 0 0,0
21.02.2018 20:00:00 0,1 -1,4 -4,1 0,0 0,4 2,6 0 0 3 2 N 1027,6 14 0 0,0
21.02.2018 19:00:00 0,6 -0,9 -3,8 0,0 0,3 2,6 3 1 8 4 NNO 1027,4 17 0 0,0
21.02.2018 18:00:00 0,8 -0,9 -2,6 0,0 0,3 2,6 6 4 9 5 NNO 1027,0 18 0 0,0
21.02.2018 17:00:00 1,1 -1,0 0,5 0,3 0,3 2,6 5 3 23 12 NNW 1027,0 17 0 0,0
21.02.2018 16:00:00 1,8 -1,7 1,7 0,8 0,3 2,6 20 11 25 14 NNO 1027,0 34 14 0,0
21.02.2018 15:00:00 2,9 -1,4 4,6 1,8 0,3 2,6 17 9 19 10 N 1027,0 19 12 0,0
21.02.2018 14:00:00 2,8 -1,6 6,2 2,1 0,3 2,6 9 5 13 7 N 1027,4 21 55 0,0
21.02.2018 13:00:00 2,4 -2,3 5,3 1,0 0,3 2,6 11 6 26 14 NO 1027,6 17 47 0,0
21.02.2018 12:00:00 2,7 -0,4 6,5 0,0 0,3 2,6 7 4 8 5 N 1027,7 17 32 0,0
21.02.2018 11:00:00 1,9 -0,5 2,0 0,0 0,3 2,6 3 2 6 4 N 1027,4 11 3 0,0
21.02.2018 10:00:00 2,1 -0,8 1,2 -0,1 0,3 2,6 4 2 9 5 O 1027,4 13 6 0,0
21.02.2018 09:00:00 1,3 -0,9 -0,1 -0,5 0,3 2,6 5 3 9 5 O 1027,1 10 11 0,0
21.02.2018 08:00:00 0,6 -1,6 -3,1 -1,4 0,3 2,6 5 3 10 6 OZO 1026,8 8 0 0,0
21.02.2018 07:00:00 0,3 -1,5 -4,5 -1,3 0,3 2,6 8 4 11 6 ONO 1026,8 9 0 0,0
21.02.2018 06:00:00 0,6 -1,3 -3,6 -0,9 0,3 2,6 5 3 16 9 ONO 1026,5 8 0 0,0
21.02.2018 05:00:00 1,5 -0,9 0,4 -0,2 0,3 2,6 10 5 18 10 NO 1026,6 9 0 0,0
21.02.2018 04:00:00 1,0 -1,4 -0,8 -0,3 0,3 2,6 6 4 14 7 NO 1026,6 11 0 0,0
21.02.2018 03:00:00 0,8 -2,5 -0,7 -0,3 0,4 2,6 4 2 12 6 O 1026,4 15 0 0,0
21.02.2018 02:00:00 0,8 -2,8 -0,6 -0,3 0,4 2,6 4 2 12 6 ONO 1026,6 17 0 0,0
21.02.2018 01:00:00 0,3 -3,0 -1,5 -0,9 0,4 2,6 7 4 16 9 O 1026,4 15 0 0,0
21.02.2018 00:00:00 -0,1 -2,9 -3,7 -0,9 0,4 2,6 6 4 16 8 ONO 1026,2 14 0 0,0
20.02.2018 23:00:00 0,0 -3,1 -3,6 -0,7 0,5 2,6 7 4 16 9 ONO 1025,8 13 0 0,0
20.02.2018 22:00:00 0,0 -3,1 -2,9 -0,5 0,5 2,6 7 4 17 9 O 1025,4 12 0 0,0
20.02.2018 21:00:00 0,4 -3,1 -1,8 -0,2 0,6 2,6 10 5 17 9 ONO 1025,1 12 0 0,0
20.02.2018 20:00:00 0,3 -3,6 -2,6 0,0 0,6 2,6 7 4 18 10 ONO 1024,7 11 0 0,0
20.02.2018 19:00:00 0,9 -4,1 -1,7 0,1 0,7 2,6 8 5 19 10 ONO 1024,2 10 0 0,0
20.02.2018 18:00:00 1,7 -4,5 -0,8 0,2 0,8 2,6 11 6 25 13 O 1023,5 12 0 0,0
20.02.2018 17:00:00 2,6 -5,8 0,7 0,4 0,9 2,6 13 7 31 17 O 1023,1 16 37 0,0
20.02.2018 16:00:00 3,5 -6,5 2,0 1,6 0,7 2,6 12 6 31 17 O 1022,6 17 60 0,0
20.02.2018 15:00:00 4,0 -5,3 5,3 2,2 0,4 2,6 11 6 31 17 O 1022,6 9 58 0,0
20.02.2018 14:00:00 3,9 -5,0 5,9 1,0 0,3 2,6 13 7 26 14 O 1022,6 10 43 0,0
20.02.2018 13:00:00 3,2 -4,7 4,6 0,8 0,3 2,6 12 7 28 15 O 1022,5 9 55 0,0
20.02.2018 12:00:00 2,9 -3,8 5,6 0,0 0,3 2,6 9 5 24 13 O 1022,6 7 60 0,0
20.02.2018 11:00:00 2,5 -3,4 4,6 0,0 0,3 2,6 7 4 17 9 O 1022,4 7 60 0,0
20.02.2018 10:00:00 1,0 -3,0 1,0 -0,2 0,3 2,6 8 4 19 10 O 1022,4 6 60 0,0
20.02.2018 09:00:00 -0,1 -2,9 -1,2 -0,4 0,3 2,6 8 5 21 11 OZO 1022,2 5 28 0,0
20.02.2018 08:00:00 -0,7 -2,8 -2,5 -0,7 0,3 2,6 11 6 19 10 OZO 1021,9 4,7 0 0,0
20.02.2018 07:00:00 -0,4 -2,4 -2,3 -0,5 0,4 2,6 10 5 17 9 OZO 1021,5 4,9 0 0,0
20.02.2018 06:00:00 -0,4 -2,1 -3,1 -0,3 0,4 2,6 9 5 16 9 ZO 1021,3 6 0 0,0
20.02.2018 05:00:00 -0,2 -1,9 -1,5 -0,1 0,4 2,6 11 6 19 10 ZO 1021,0 5 0 0,0
20.02.2018 04:00:00 -0,1 -1,8 -1,3 0,0 0,4 2,6 14 8 18 10 ZO 1020,8 5 0 0,0
20.02.2018 03:00:00 0,3 -1,4 -0,6 0,0 0,4 2,6 14 8 19 10 ZO 1020,8 6 0 0,0
20.02.2018 02:00:00 0,6 -1,4 -0,5 0,0 0,4 2,6 12 6 17 9 ZO 1020,7 6 0 0,0
20.02.2018 01:00:00 1,1 -1,2 -0,6 0,1 0,5 2,6 9 5 13 7 OZO 1020,6 7 0 0,0
20.02.2018 00:00:00 1,5 -1,0 -0,1 0,1 0,5 2,6 7 4 13 7 ZZO 1020,4 7 0 0,0
19.02.2018 23:00:00 1,7 -0,7 -0,1 -0,2 0,6 2,6 6 3 14 8 ZZO 1020,2 7 0 0,0
19.02.2018 22:00:00 2,1 -0,8 1,0 0,1 0,7 2,6 12 6 16 9 ZO 1020,1 7 0 0,0
19.02.2018 21:00:00 2,7 -0,8 1,4 0,4 0,8 2,6 9 5 13 7 ZO 1020,2 8 0 0,0
19.02.2018 20:00:00 3,3 -0,6 2,3 0,8 0,9 2,6 8 4 13 7 ZO 1020,2 8 0 0,0
19.02.2018 19:00:00 3,5 -0,6 2,3 0,9 1,0 2,6 9 5 12 6 ZO 1020,2 8 0 0,0
19.02.2018 18:00:00 3,8 -0,7 1,7 1,4 1,0 2,6 5 3 10 5 OZO 1020,1 8 0 0,0
19.02.2018 17:00:00 4,5 -0,8 2,7 2,0 0,9 2,6 4 2 9 5 ZZO 1019,9 7 19 0,0
19.02.2018 16:00:00 4,7 -1,1 4,1 2,7 0,7 2,6 7 4 11 6 ZZW 1019,8 7 0 0,0
19.02.2018 15:00:00 4,5 -1,5 4,6 2,3 0,4 2,6 6 3 13 7 ZZW 1020,1 7 2 0,0
19.02.2018 14:00:00 5,0 -1,7 5,8 2,1 0,1 2,6 6 4 14 8 Z 1020,2 7 60 0,0
19.02.2018 13:00:00 5,3 -1,3 7,6 0,9 0,1 2,6 6 3 17 9 ZZO 1020,5 7 60 0,0
19.02.2018 12:00:00 3,3 -1,8 3,7 0,0 0,1 2,6 7 4 15 8 Z 1020,9 9 40 0,0
19.02.2018 11:00:00 2,3 -2,3 2,9 0,0 0,0 2,6 11 6 18 10 ZZW 1021,1 10 41 0,0
19.02.2018 10:00:00 1,2 -2,5 1,1 0,0 0,0 2,6 13 7 19 11 Z 1021,2 9 4 0,0
19.02.2018 09:00:00 0,6 -2,7 0,4 -0,1 0,0 2,6 12 7 19 10 Z 1021,3 8 12 0,0
19.02.2018 08:00:00 0,1 -2,8 -0,9 -0,3 0,0 2,6 11 6 19 10 Z 1021,4 8 0 0,0
19.02.2018 07:00:00 0,4 -2,7 -0,4 -0,2 0,0 2,6 10 5 18 10 Z 1021,5 9 0 0,0
19.02.2018 06:00:00 0,3 -2,8 -0,5 -0,2 0,0 2,6 11 6 18 10 Z 1021,7 9 0 0,0
19.02.2018 05:00:00 0,5 -2,8 -0,8 -0,1 0,0 2,6 12 6 19 11 Z 1022,0 10 0 0,0
19.02.2018 04:00:00 0,8 -2,7 -0,2 0,0 0,0 2,6 10 6 21 11 Z 1022,4 11 0 0,0
19.02.2018 03:00:00 1,1 -2,6 -0,1 0,0 0,0 2,6 10 5 21 11 Z 1023,0 12 0 0,0
19.02.2018 02:00:00 1,2 -2,5 0,3 0,0 0,0 2,6 10 5 21 11 Z 1023,6 13 0 0,0
19.02.2018 01:00:00 1,4 -2,6 0,4 0,0 0,0 2,6 11 6 21 12 Z 1024,3 15 0 0,0
19.02.2018 00:00:00 1,5 -2,3 0,6 0,0 0,0 2,6 10 5 23 12 Z 1024,6 19 0 0,0
18.02.2018 23:00:00 1,7 -2,7 0,7 0,0 0,0 2,6 10 5 22 12 Z 1025,1 26 0 0,0
18.02.2018 22:00:00 1,9 -2,7 0,9 0,0 0,1 2,6 11 6 24 13 Z 1025,2 26 0 0,0
18.02.2018 21:00:00 2,0 -2,2 0,8 0,0 0,1 2,6 8 5 19 11 Z 1025,6 22 0 0,0
18.02.2018 20:00:00 2,3 -1,8 0,2 0,1 0,2 2,6 8 4 17 9 Z 1026,0 22 0 0,0
18.02.2018 19:00:00 3,0 -2,3 0,4 0,0 0,4 2,6 9 5 17 9 Z 1026,3 23 0 0,0
18.02.2018 18:00:00 4,0 -2,8 1,7 1,1 0,6 2,6 7 4 14 8 Z 1026,5 43 0 0,0
18.02.2018 17:00:00 4,5 -3,0 3,1 2,3 0,6 2,6 8 4 22 12 Z 1026,7 42 0 0,0
18.02.2018 16:00:00 4,8 -3,5 4,1 3,4 0,6 2,6 11 6 29 16 ZZW 1026,9 46 3 0,0
18.02.2018 15:00:00 5,0 -3,7 5,6 4,3 0,5 2,6 11 6 26 14 ZW 1027,3 32 35 0,0

tt = temperatuur
td = dauwpunt
tt 5cm = temperatuur 5cm
tt -5cm = temperatuur -5cm
tt -20cm = temperatuur -20cm
tt -100cm = temperatuur -100cm
ff = windsnelheid
fx = windstoten
dd = windrichting
ppp = luchtdruk
vv = zicht
sd = Zonneschijnduur
rr = neerslag

Weerstations in de omgeving